{"data":{"norad_id":56825,"epoch":"2026-05-25T01:37:15.228768Z","epoch_age_seconds":69362,"freshness":"FRESH","line1":"1 56825U 23079C   26145.06753737 -.00001909  00000+0 -59846-4 0  9999","line2":"2 56825  43.0040  35.3410 0001273 273.8621  86.2085 15.27592473164574","mean_motion":15.27592473,"eccentricity":0.0001273,"inclination_deg":43.004,"raan_deg":35.341,"arg_perigee_deg":273.8621,"mean_anomaly_deg":86.2085,"bstar":-5.9846e-5,"rev_number":16457,"period_min":94.265979012846,"perigee_km":482.13832340907,"apogee_km":483.88517188022,"semimajor_km":6861.1487476446,"source":"CELESTRAK","updated_at":"2026-05-25T13:38:18.162333Z"}}